Location: Mahannah Oil Field
(37.4664°N, 96.6003°W)
Time: 15:01:19
(UTC+00:00)

Vanguard 2 Rocket - Pass Details

Date: 21 June 2021
Orbit: 554 x 3325 km, 32.9° (Epoch: 24 July)

Event Time Altitude Azimuth Distance (km) Brightness Sun altitude
Rises 07:54:46 0° 281° (W) 6,047 11.0 -25.8°
Reaches altitude 10° 08:00:29 10° 268° (W) 4,487 10.2 -25.3°
Enters shadow 08:03:48 16° 256° (WSW) 3,651 9.6 -25.1°
